BDR664 HSSK-OEJN

Flight info

Callsign BDR664
Flight time 1h 23m
Altitude 37000
Route PASIL2B PASIL M562 PSD DCT EGMEG
Aircraft B738/M-SDE2E3FGHIRWXY/LB1

Departure

Time 2026-05-07 15:20
Airport Khartoum International Airport (HSSK)

Arrival

Time 2026-05-07 16:43
Airport King Abdulaziz International Airport (OEJN)
Time Latitude Longitude Altitude Speed Heading
2026-05-07 15:10 15.59537 32.55115 1268 ft 2 kts 257°
2026-05-07 15:10 15.59545 32.55127 1268 ft 1 kts 185°
2026-05-07 15:11 15.59553 32.55126 1268 ft 1 kts 165°
2026-05-07 15:16 15.59527 32.55141 1268 ft 8 kts 146°
2026-05-07 15:16 15.59469 32.55158 1268 ft 8 kts 180°
2026-05-07 15:16 15.59391 32.55158 1268 ft 15 kts 179°
2026-05-07 15:16 15.59274 32.55159 1268 ft 19 kts 180°
2026-05-07 15:17 15.59150 32.55159 1268 ft 18 kts 180°
2026-05-07 15:17 15.59020 32.55159 1268 ft 20 kts 180°
2026-05-07 15:17 15.58882 32.55159 1268 ft 19 kts 180°
2026-05-07 15:17 15.58743 32.55159 1268 ft 21 kts 180°
2026-05-07 15:18 15.58598 32.55160 1268 ft 19 kts 179°
2026-05-07 15:18 15.58464 32.55161 1268 ft 20 kts 179°
2026-05-07 15:18 15.58328 32.55161 1268 ft 17 kts 169°
2026-05-07 15:18 15.58294 32.55237 1268 ft 12 kts 93°
2026-05-07 15:19 15.58303 32.55313 1268 ft 8 kts 37°
2026-05-07 15:19 15.58337 32.55322 1268 ft 2 kts
2026-05-07 15:19 15.58367 32.55322 1268 ft 23 kts
2026-05-07 15:19 15.58784 32.55318 1268 ft 96 kts 359°
2026-05-07 15:20 15.59668 32.55309 1271 ft 157 kts 359°
2026-05-07 15:20 15.60855 32.55297 1674 ft 179 kts 359°
2026-05-07 15:20 15.62109 32.55281 2525 ft 179 kts 359°
2026-05-07 15:20 15.63439 32.55264 3082 ft 204 kts 359°
2026-05-07 15:21 15.64944 32.55255 3392 ft 230 kts 360°
2026-05-07 15:21 15.66660 32.55246 3774 ft 255 kts
2026-05-07 15:21 15.68412 32.55565 4462 ft 264 kts 25°
2026-05-07 15:21 15.69854 32.56771 5415 ft 265 kts 48°
2026-05-07 15:22 15.70980 32.58299 6121 ft 277 kts 52°
2026-05-07 15:22 15.72096 32.59997 6726 ft 291 kts 54°
2026-05-07 15:22 15.73252 32.61776 7550 ft 294 kts 53°
2026-05-07 15:22 15.74397 32.63512 8392 ft 297 kts 53°
2026-05-07 15:23 15.75589 32.65293 9100 ft 306 kts 53°
2026-05-07 15:23 15.76845 32.67155 9498 ft 325 kts 52°
2026-05-07 15:23 15.78191 32.69135 9882 ft 343 kts 52°
2026-05-07 15:23 15.79592 32.71187 10508 ft 352 kts 52°
2026-05-07 15:24 15.81019 32.73270 11261 ft 356 kts 52°
2026-05-07 15:24 15.82465 32.75378 12010 ft 361 kts 52°
2026-05-07 15:24 15.83933 32.77513 12748 ft 365 kts 52°
2026-05-07 15:24 15.85412 32.79664 13466 ft 369 kts 52°
2026-05-07 15:25 15.86911 32.81842 14170 ft 373 kts 52°
2026-05-07 15:25 15.88428 32.84046 14860 ft 376 kts 52°
2026-05-07 15:25 15.89956 32.86263 15532 ft 380 kts 52°
2026-05-07 15:25 15.91509 32.88504 16189 ft 384 kts 52°
2026-05-07 15:26 15.93070 32.90763 16830 ft 388 kts 52°
2026-05-07 15:26 15.94581 32.92951 17429 ft 391 kts 52°
2026-05-07 15:26 15.96229 32.95342 18062 ft 395 kts 52°
2026-05-07 15:26 15.97855 32.97702 18668 ft 399 kts 52°
2026-05-07 15:27 15.99475 33.00057 19253 ft 402 kts 52°
2026-05-07 15:27 16.01113 33.02437 19828 ft 406 kts 52°
2026-05-07 15:27 16.02751 33.04819 20387 ft 409 kts 52°
2026-05-07 15:27 16.04424 33.07243 20940 ft 412 kts 52°
2026-05-07 15:28 16.06099 33.09671 21475 ft 416 kts 52°
2026-05-07 15:28 16.07792 33.12133 21997 ft 419 kts 52°
2026-05-07 15:28 16.09493 33.14611 22506 ft 422 kts 52°
2026-05-07 15:28 16.11203 33.17104 23000 ft 425 kts 52°
2026-05-07 15:29 16.12919 33.19608 23480 ft 428 kts 52°
2026-05-07 15:29 16.14658 33.22147 23950 ft 431 kts 52°
2026-05-07 15:29 16.16402 33.24693 24406 ft 434 kts 52°
2026-05-07 15:29 16.18162 33.27263 24850 ft 437 kts 52°
2026-05-07 15:30 16.19933 33.29848 25281 ft 440 kts 52°
2026-05-07 15:30 16.21706 33.32436 25699 ft 442 kts 52°
2026-05-07 15:30 16.23570 33.35007 26105 ft 444 kts 49°
2026-05-07 15:30 16.24913 33.36680 26257 ft 449 kts 47°
2026-05-07 15:31 16.26990 33.39130 26482 ft 455 kts 46°
2026-05-07 15:31 16.29110 33.41591 26834 ft 458 kts 46°
2026-05-07 15:31 16.31293 33.44027 27081 ft 463 kts 44°
2026-05-07 15:31 16.33434 33.46486 27510 ft 463 kts 47°
2026-05-07 15:32 16.35524 33.49042 27885 ft 465 kts 48°
2026-05-07 15:32 16.37651 33.51658 28215 ft 468 kts 47°
2026-05-07 15:32 16.39768 33.54231 28537 ft 470 kts 47°
2026-05-07 15:32 16.41909 33.56815 28885 ft 471 kts 47°
2026-05-07 15:33 16.44018 33.59353 29333 ft 469 kts 47°
2026-05-07 15:33 16.46157 33.61909 29773 ft 468 kts 46°
2026-05-07 15:33 16.48300 33.64464 30171 ft 468 kts 47°
2026-05-07 15:33 16.50433 33.67018 30576 ft 467 kts 47°
2026-05-07 15:34 16.52565 33.69576 30969 ft 466 kts 47°
2026-05-07 15:34 16.54682 33.72119 31353 ft 465 kts 47°
2026-05-07 15:34 16.56795 33.74660 31730 ft 465 kts 47°
2026-05-07 15:34 16.58911 33.77206 32100 ft 464 kts 47°
2026-05-07 15:35 16.61028 33.79753 32463 ft 463 kts 47°
2026-05-07 15:35 16.63133 33.82287 32818 ft 462 kts 47°
2026-05-07 15:35 16.65248 33.84830 32970 ft 466 kts 47°
2026-05-07 15:35 16.67380 33.87400 32992 ft 471 kts 47°
2026-05-07 15:36 16.71726 33.92627 32997 ft 482 kts 47°
2026-05-07 15:36 16.76153 33.97962 32997 ft 490 kts 47°
2026-05-07 15:37 16.80619 34.03351 32997 ft 490 kts 47°
2026-05-07 15:37 16.85075 34.08731 32997 ft 490 kts 47°
2026-05-07 15:38 16.89533 34.14112 32997 ft 490 kts 47°
2026-05-07 15:38 16.93997 34.19485 32997 ft 490 kts 47°
2026-05-07 15:39 16.98453 34.24867 32997 ft 490 kts 47°
2026-05-07 15:39 17.02908 34.30254 32997 ft 490 kts 47°
2026-05-07 15:40 17.07357 34.35642 32997 ft 490 kts 47°
2026-05-07 15:40 17.11821 34.41037 32997 ft 490 kts 47°
2026-05-07 15:41 17.16271 34.46430 32997 ft 490 kts 47°
2026-05-07 15:41 17.20718 34.51834 32997 ft 490 kts 47°
2026-05-07 15:42 17.25160 34.57236 32997 ft 490 kts 47°
2026-05-07 15:42 17.29605 34.62642 32997 ft 490 kts 47°
2026-05-07 15:43 17.34043 34.68050 32997 ft 490 kts 47°
2026-05-07 15:43 17.38481 34.73464 32997 ft 490 kts 47°
2026-05-07 15:44 17.42919 34.78887 32997 ft 490 kts 47°
2026-05-07 15:44 17.47349 34.84307 32997 ft 490 kts 47°
2026-05-07 15:45 17.51776 34.89727 32997 ft 490 kts 47°
2026-05-07 15:45 17.56190 34.95111 32997 ft 490 kts 47°
2026-05-07 15:46 17.62846 35.03244 32997 ft 490 kts 47°
2026-05-07 15:47 17.67311 35.08712 32997 ft 490 kts 47°
2026-05-07 15:47 17.71709 35.14106 32997 ft 490 kts 47°
2026-05-07 15:48 17.76133 35.19537 32997 ft 490 kts 47°
2026-05-07 15:48 17.80586 35.25009 32997 ft 490 kts 47°
2026-05-07 15:49 17.84986 35.30420 32997 ft 490 kts 47°
2026-05-07 15:49 17.89406 35.35859 32997 ft 490 kts 47°
2026-05-07 15:50 17.93829 35.41308 32997 ft 490 kts 47°
2026-05-07 15:50 17.98247 35.46755 32997 ft 490 kts 47°
2026-05-07 15:51 18.02669 35.52211 32997 ft 490 kts 47°
2026-05-07 15:51 18.07082 35.57661 32997 ft 490 kts 47°
2026-05-07 15:52 18.11500 35.63121 32997 ft 490 kts 47°
2026-05-07 15:52 18.15911 35.68578 32997 ft 490 kts 47°
2026-05-07 15:53 18.20324 35.74042 32997 ft 490 kts 47°
2026-05-07 15:53 18.24735 35.79509 32997 ft 490 kts 47°
2026-05-07 15:54 18.29142 35.84975 32997 ft 490 kts 47°
2026-05-07 15:54 18.33549 35.90445 32997 ft 490 kts 47°
2026-05-07 15:55 18.37961 35.95927 32997 ft 490 kts 47°
2026-05-07 15:55 18.42361 36.01397 32997 ft 490 kts 48°
2026-05-07 15:56 18.46767 36.06881 32997 ft 490 kts 48°
2026-05-07 15:56 18.51170 36.12365 32997 ft 490 kts 48°
2026-05-07 15:57 18.55566 36.17846 32997 ft 490 kts 48°
2026-05-07 15:57 18.59969 36.23341 32997 ft 490 kts 48°
2026-05-07 15:58 18.64364 36.28830 32997 ft 490 kts 48°
2026-05-07 15:58 18.68758 36.34323 32997 ft 490 kts 48°
2026-05-07 15:59 18.73151 36.39819 32997 ft 490 kts 48°
2026-05-07 15:59 18.77546 36.45323 32997 ft 490 kts 48°
2026-05-07 16:00 18.81909 36.50791 32997 ft 490 kts 48°
2026-05-07 16:00 18.86328 36.56334 32997 ft 490 kts 48°
2026-05-07 16:01 18.90713 36.61840 32997 ft 490 kts 48°
2026-05-07 16:01 18.95071 36.67317 32997 ft 490 kts 48°
2026-05-07 16:02 18.99452 36.72828 32997 ft 490 kts 48°
2026-05-07 16:02 19.03840 36.78352 32997 ft 490 kts 48°
2026-05-07 16:03 19.08221 36.83873 32997 ft 490 kts 48°
2026-05-07 16:03 19.12599 36.89395 32997 ft 490 kts 48°
2026-05-07 16:04 19.16976 36.94920 32997 ft 490 kts 48°
2026-05-07 16:04 19.21362 37.00447 32997 ft 490 kts 48°
2026-05-07 16:05 19.25734 37.05972 32997 ft 490 kts 48°
2026-05-07 16:05 19.30102 37.11509 32997 ft 490 kts 48°
2026-05-07 16:06 19.34471 37.17052 32997 ft 490 kts 48°
2026-05-07 16:06 19.38888 37.22623 32996 ft 490 kts 46°
2026-05-07 16:07 19.43728 37.27507 32709 ft 475 kts 38°
2026-05-07 16:07 19.46239 37.29740 32456 ft 464 kts 37°
2026-05-07 16:07 19.48682 37.31908 32205 ft 454 kts 37°
2026-05-07 16:07 19.51075 37.34040 31953 ft 446 kts 37°
2026-05-07 16:08 19.53424 37.36137 31701 ft 437 kts 37°
2026-05-07 16:08 19.55733 37.38203 31448 ft 429 kts 37°
2026-05-07 16:08 19.57991 37.40226 31197 ft 423 kts 37°
2026-05-07 16:08 19.60231 37.42235 30948 ft 423 kts 37°
2026-05-07 16:09 19.62486 37.44258 30697 ft 424 kts 37°
2026-05-07 16:09 19.64739 37.46281 30448 ft 426 kts 38°
2026-05-07 16:09 19.66996 37.48304 30198 ft 424 kts 37°
2026-05-07 16:09 19.69248 37.50315 29947 ft 422 kts 37°
2026-05-07 16:10 19.71494 37.52324 29696 ft 420 kts 37°
2026-05-07 16:10 19.73726 37.54325 29446 ft 419 kts 37°
2026-05-07 16:10 19.75943 37.56313 29195 ft 417 kts 37°
2026-05-07 16:10 19.78152 37.58297 28945 ft 416 kts 37°
2026-05-07 16:11 19.80347 37.60270 28696 ft 414 kts 37°
2026-05-07 16:11 19.82550 37.62250 28444 ft 412 kts 37°
2026-05-07 16:11 19.84735 37.64217 28188 ft 409 kts 37°
2026-05-07 16:11 19.86905 37.66170 27943 ft 410 kts 37°
2026-05-07 16:12 19.89079 37.68127 27693 ft 409 kts 37°
2026-05-07 16:12 19.91222 37.70058 27445 ft 407 kts 37°
2026-05-07 16:12 19.93400 37.72021 27191 ft 404 kts 37°
2026-05-07 16:12 19.95525 37.73936 26943 ft 403 kts 37°
2026-05-07 16:13 19.97675 37.75876 26690 ft 402 kts 37°
2026-05-07 16:13 19.99797 37.77790 26440 ft 400 kts 37°
2026-05-07 16:13 20.01915 37.79702 26189 ft 399 kts 37°
2026-05-07 16:13 20.04021 37.81603 25939 ft 397 kts 37°
2026-05-07 16:14 20.05417 37.82865 25773 ft 396 kts 37°
2026-05-07 16:14 20.07511 37.84757 25522 ft 395 kts 37°
2026-05-07 16:14 20.09600 37.86644 25272 ft 393 kts 37°
2026-05-07 16:14 20.11679 37.88524 25022 ft 392 kts 37°
2026-05-07 16:15 20.13752 37.90399 24771 ft 390 kts 37°
2026-05-07 16:15 20.15813 37.92264 24521 ft 389 kts 37°
2026-05-07 16:15 20.17869 37.94125 24270 ft 387 kts 37°
2026-05-07 16:15 20.19918 37.95980 24019 ft 386 kts 37°
2026-05-07 16:16 20.21955 37.97825 23769 ft 384 kts 37°
2026-05-07 16:16 20.23989 37.99668 23518 ft 383 kts 37°
2026-05-07 16:16 20.26010 38.01500 23268 ft 381 kts 37°
2026-05-07 16:16 20.28029 38.03331 23018 ft 380 kts 37°
2026-05-07 16:17 20.30038 38.05153 22767 ft 379 kts 37°
2026-05-07 16:17 20.32039 38.06969 22516 ft 377 kts 37°
2026-05-07 16:17 20.34031 38.08777 22266 ft 376 kts 37°
2026-05-07 16:17 20.36016 38.10580 21959 ft 375 kts 37°
2026-05-07 16:18 20.38007 38.12388 21254 ft 378 kts 37°
2026-05-07 16:18 20.40016 38.14214 20058 ft 383 kts 37°
2026-05-07 16:18 20.42061 38.16073 18826 ft 387 kts 37°
2026-05-07 16:18 20.44109 38.17935 17717 ft 387 kts 38°
2026-05-07 16:19 20.46143 38.19786 16963 ft 379 kts 38°
2026-05-07 16:19 20.48141 38.21603 16605 ft 378 kts 38°
2026-05-07 16:19 20.50147 38.23430 16427 ft 379 kts 38°
2026-05-07 16:19 20.52127 38.25233 16304 ft 380 kts 38°
2026-05-07 16:20 20.54141 38.27068 16181 ft 381 kts 38°
2026-05-07 16:20 20.56156 38.28904 16118 ft 380 kts 38°
2026-05-07 16:20 20.58164 38.30735 16055 ft 380 kts 38°
2026-05-07 16:20 20.60176 38.32570 16005 ft 380 kts 38°
2026-05-07 16:21 20.62189 38.34399 16000 ft 380 kts 37°
2026-05-07 16:21 20.64200 38.36228 15997 ft 380 kts 38°
2026-05-07 16:21 20.66209 38.38060 15997 ft 380 kts 38°
2026-05-07 16:21 20.68214 38.39892 15997 ft 380 kts 38°
2026-05-07 16:22 20.70222 38.41728 15997 ft 380 kts 38°
2026-05-07 16:22 20.72227 38.43563 15997 ft 380 kts 38°
2026-05-07 16:22 20.74234 38.45401 15997 ft 380 kts 38°
2026-05-07 16:22 20.76241 38.47239 15997 ft 380 kts 38°
2026-05-07 16:23 20.78247 38.49077 15997 ft 380 kts 38°
2026-05-07 16:23 20.80251 38.50913 15997 ft 380 kts 38°
2026-05-07 16:23 20.82257 38.52751 15997 ft 380 kts 38°
2026-05-07 16:23 20.84207 38.54660 15991 ft 382 kts 45°
2026-05-07 16:24 20.85790 38.56946 15995 ft 385 kts 58°
2026-05-07 16:24 20.86933 38.59537 15997 ft 387 kts 68°
2026-05-07 16:24 20.87741 38.62290 15998 ft 388 kts 74°
2026-05-07 16:24 20.88401 38.65082 15997 ft 388 kts 75°
2026-05-07 16:25 20.89094 38.67871 15997 ft 388 kts 73°
2026-05-07 16:25 20.89832 38.70640 15997 ft 387 kts 73°
2026-05-07 16:25 20.90584 38.73404 15997 ft 387 kts 72°
2026-05-07 16:25 20.91340 38.76174 15997 ft 387 kts 72°
2026-05-07 16:26 20.92087 38.78906 15989 ft 380 kts 72°
2026-05-07 16:26 20.92821 38.81595 15799 ft 371 kts 72°
2026-05-07 16:26 20.93541 38.84219 15050 ft 365 kts 72°
2026-05-07 16:26 20.94252 38.86825 14190 ft 363 kts 72°
2026-05-07 16:27 20.94953 38.89399 13322 ft 359 kts 72°
2026-05-07 16:27 20.95646 38.91946 12471 ft 354 kts 72°
2026-05-07 16:27 20.96330 38.94461 11632 ft 350 kts 72°
2026-05-07 16:27 20.97074 38.96916 10801 ft 345 kts 68°
2026-05-07 16:28 20.97992 38.99274 9976 ft 340 kts 64°
2026-05-07 16:28 20.98957 39.01566 9161 ft 336 kts 64°
2026-05-07 16:28 20.99899 39.03845 8525 ft 330 kts 65°
2026-05-07 16:28 21.00794 39.06046 8219 ft 327 kts 65°
2026-05-07 16:29 21.01709 39.08320 8047 ft 325 kts 65°
2026-05-07 16:29 21.02562 39.10449 7996 ft 307 kts 65°
2026-05-07 16:29 21.03394 39.12532 7988 ft 296 kts 65°
2026-05-07 16:29 21.04194 39.14540 7990 ft 291 kts 65°
2026-05-07 16:30 21.04983 39.16520 7994 ft 288 kts 65°
2026-05-07 16:30 21.05771 39.18499 7996 ft 290 kts 65°
2026-05-07 16:30 21.06568 39.20502 7772 ft 293 kts 65°
2026-05-07 16:30 21.07361 39.22492 7522 ft 289 kts 65°
2026-05-07 16:31 21.08327 39.24318 7260 ft 283 kts 47°
2026-05-07 16:31 21.09861 39.25600 7007 ft 272 kts 24°
2026-05-07 16:31 21.11602 39.26312 6764 ft 265 kts 13°
2026-05-07 16:31 21.13340 39.26845 6514 ft 260 kts 10°
2026-05-07 16:32 21.15050 39.27257 6254 ft 244 kts
2026-05-07 16:32 21.16699 39.27587 5995 ft 233 kts
2026-05-07 16:32 21.18248 39.27887 5745 ft 226 kts
2026-05-07 16:32 21.19778 39.28183 5493 ft 221 kts
2026-05-07 16:33 21.21284 39.28475 5243 ft 220 kts
2026-05-07 16:33 21.22787 39.28766 5030 ft 218 kts
2026-05-07 16:33 21.24271 39.29053 4998 ft 216 kts
2026-05-07 16:33 21.25761 39.29343 5003 ft 219 kts
2026-05-07 16:34 21.27275 39.29416 4995 ft 218 kts 352°
2026-05-07 16:34 21.28760 39.29059 4886 ft 222 kts 341°
2026-05-07 16:34 21.30216 39.28510 4725 ft 221 kts 339°
2026-05-07 16:34 21.31648 39.27928 4569 ft 219 kts 339°
2026-05-07 16:35 21.33069 39.27357 4420 ft 217 kts 339°
2026-05-07 16:35 21.34488 39.26792 4274 ft 218 kts 339°
2026-05-07 16:35 21.35909 39.26228 4130 ft 216 kts 340°
2026-05-07 16:35 21.37291 39.25682 3998 ft 208 kts 340°
2026-05-07 16:36 21.38590 39.25170 3881 ft 191 kts 340°
2026-05-07 16:36 21.39807 39.24691 3737 ft 182 kts 340°
2026-05-07 16:36 21.40978 39.24230 3607 ft 178 kts 340°
2026-05-07 16:36 21.42143 39.23772 3500 ft 180 kts 340°
2026-05-07 16:37 21.43318 39.23310 3381 ft 180 kts 340°
2026-05-07 16:37 21.44490 39.22849 3263 ft 180 kts 340°
2026-05-07 16:37 21.45663 39.22388 3145 ft 179 kts 340°
2026-05-07 16:37 21.46830 39.21929 3095 ft 178 kts 340°
2026-05-07 16:38 21.47998 39.21469 3060 ft 180 kts 340°
2026-05-07 16:38 21.49170 39.21008 2968 ft 179 kts 340°
2026-05-07 16:38 21.50323 39.20555 2903 ft 179 kts 340°
2026-05-07 16:38 21.51489 39.20096 2843 ft 178 kts 340°
2026-05-07 16:39 21.52629 39.19647 2778 ft 172 kts 340°
2026-05-07 16:39 21.53725 39.19215 2703 ft 164 kts 340°
2026-05-07 16:39 21.54795 39.18794 2632 ft 164 kts 340°
2026-05-07 16:39 21.55856 39.18376 2407 ft 162 kts 340°
2026-05-07 16:40 21.56907 39.17963 2182 ft 159 kts 340°
2026-05-07 16:40 21.57934 39.17558 1968 ft 156 kts 340°
2026-05-07 16:40 21.58947 39.17159 1760 ft 154 kts 340°
2026-05-07 16:40 21.59948 39.16764 1561 ft 152 kts 340°
2026-05-07 16:41 21.60905 39.16387 1384 ft 143 kts 340°
2026-05-07 16:41 21.61831 39.16022 1171 ft 141 kts 340°
2026-05-07 16:41 21.62754 39.15658 984 ft 141 kts 340°
2026-05-07 16:41 21.63678 39.15294 794 ft 141 kts 340°
2026-05-07 16:42 21.64597 39.14931 595 ft 141 kts 340°
2026-05-07 16:42 21.65517 39.14566 369 ft 140 kts 340°
2026-05-07 16:42 21.66429 39.14204 198 ft 140 kts 340°
2026-05-07 16:42 21.67341 39.13850 123 ft 140 kts 340°
2026-05-07 16:43 21.68256 39.13496 78 ft 139 kts 340°
2026-05-07 16:43 21.69105 39.13155 57 ft 96 kts 340°
2026-05-07 16:43 21.69367 39.13051 57 ft 27 kts 341°
2026-05-07 16:43 21.69534 39.12988 57 ft 24 kts 340°
2026-05-07 16:44 21.69634 39.12945 57 ft 10 kts 339°
2026-05-07 16:44 21.69695 39.12920 57 ft 9 kts 339°
2026-05-07 16:44 21.69754 39.12897 57 ft 9 kts 339°
2026-05-07 16:44 21.69821 39.12871 57 ft 13 kts 340°
2026-05-07 16:45 21.69919 39.12833 57 ft 17 kts 340°
2026-05-07 16:45 21.70042 39.12784 57 ft 20 kts 340°
2026-05-07 16:45 21.70156 39.12739 57 ft 15 kts 340°
2026-05-07 16:45 21.70231 39.12728 57 ft 10 kts 28°
2026-05-07 16:46 21.70264 39.12784 57 ft 6 kts 69°
2026-05-07 16:46 21.70272 39.12809 57 ft 0 kts 69°
2026-05-07 16:48 21.70285 39.12845 57 ft 12 kts 69°
2026-05-07 16:48 21.70298 39.12918 57 ft 9 kts 108°
2026-05-07 16:48 21.70280 39.12920 57 ft 6 kts 193°
2026-05-07 16:48 21.70196 39.12938 57 ft 18 kts 159°
2026-05-07 16:49 21.70064 39.12990 57 ft 22 kts 160°
2026-05-07 16:49 21.69939 39.13040 57 ft 18 kts 159°
2026-05-07 16:49 21.69808 39.13092 57 ft 22 kts 159°
2026-05-07 16:49 21.69667 39.13147 57 ft 23 kts 160°
2026-05-07 16:50 21.69540 39.13196 57 ft 0 kts 158°
2026-05-07 16:50 21.69514 39.13207 57 ft 9 kts 158°
2026-05-07 16:50 21.69453 39.13231 57 ft 11 kts 160°
2026-05-07 16:50 21.69373 39.13266 57 ft 14 kts 142°
2026-05-07 16:51 21.69339 39.13361 57 ft 15 kts 135°
2026-05-07 16:51 21.69295 39.13388 57 ft 8 kts 155°
2026-05-07 16:51 21.69212 39.13421 57 ft 15 kts 160°
2026-05-07 16:51 21.69185 39.13484 57 ft 9 kts 64°
2026-05-07 16:52 21.69206 39.13530 57 ft 6 kts 59°
2026-05-07 16:52 21.69226 39.13542 57 ft 4 kts 17°
2026-05-07 16:52 21.69275 39.13536 57 ft 3 kts 300°
2026-05-07 16:52 21.69276 39.13517 57 ft 5 kts 256°
2026-05-07 16:53 21.69267 39.13495 57 ft 0 kts 250°